Weather in El Paso

United States     31°45′32″N   106°29′12″W
temp.,
°C
wind,
m/s
gust,
m/s
humid.,
%
clouds,
%
prec.,
mm/h
press.,
hPa
HPBL,
m
18 september, sat
sat1801:00+29nnw23230 0.0 1014144
04:00+27ene12250 0.0 1014141
07:00+26ese34310 0.0 1015239
10:00+26e34331 0.0 1017378
13:00+31ese45240 0.0 10161027
16:00+34e341531 0.0 10123781
19:00+34se551318 0.0 10113069
22:00+31ese581696 0.0 1012662
19 september, sun
sun1901:00+28se47255 0.0 1013359
04:00+27se36275 0.0 1012251
07:00+25se47310 0.0 1012284
10:00+26sse48320 0.0 1013480
13:00+31sw56200 0.0 10111383
16:00+34sw55164 0.0 10083505
19:00+33sw45162 0.0 10073040
22:00+30wnw682815 0.0 1009603
20 september, mon
mon2001:00+29wnw482982 0.0 1009603
04:00+28wnw27315 0.0 1009713
07:00+26w34377 0.0 1010323
10:00+27wnw473411 0.0 1012631
13:00+31wnw66252 0.0 10121972
16:00+33w57210 0.0 10093132
19:00+33wnw67183 0.0 10093310
22:00+31nw572084 0.0 1011746
21 september, tue
tue2101:00+28sw3433100 0.0 1013279
04:00+25sw4544100 0.0 1014255
07:00+25wsw2236100 0.0 1015234
10:00+23ene8103671 0.0 1020624
13:00+27e91027100 0.0 10211267
16:00+28e8826100 0.0 10201686
19:00+27e9928100 0.0 10191546
22:00+25ese8935100 0.0 1021775
22 september, wed
wed2201:00+23ese71136100 0.0 1023727
04:00+22ese5937100 0.0 1023660
07:00+21e4638100 0.0 1024475
10:00+21e463493 0.0 1025555
13:00+25e552999 0.0 10221090
16:00+28e442996 0.0 10181733
19:00+29ese442843 0.0 10162154
22:00+27e4529100 0.0 1017781